Flag for Croatia Weather past 2 weeks in Dubrovnik, Croatia

Now
41 °F

Passing clouds.


Feels Like: 37 °F
Forecast: 36 / 45 °F
Wind: 6 mph from North

Location: Dubrovnik / Cilipi

Current Time: Feb 2, 2015 at 3:25:32 AM

Latest Report: Feb 2, 2015 at 3:00 AM


Visibility: N/A

Pressure: 29.45 "Hg

Humidity: 81%

Dew point: 36 °F

Location of DubrovnikLocation

Historic Weather in Dubrovnik — Graph

°F

Dubrovnik temperature yesterday

Maximum temperature yesterday: 52 °F (at 8:00 PM)
Minimum temperature yesterday: 41 °F (at 5:30 AM)
Average temperature yesterday: 45 °F

Past Weeks' High & Low Weather Summary

 TemperatureHumidityPressure
High59 °F (Jan 24, 2:30 PM)100% (Jan 18, 9:30 AM)30.18 "Hg (Jan 18, 9:30 AM)
Low39 °F (Jan 27, 6:30 PM)36% (Jan 26, 1:30 PM)28.94 "Hg (Jan 30, 6:30 PM)
Average49 °F71%29.71 "Hg
* Reported Jan 18 2:00 AM — Feb 2 2:30 AM, Dubrovnik, Weather by CustomWeather, © 2014

Note: Actual official high and low records may vary slightly from our data, if they occured in-between our weather recording intervals... More about our weather records

Advertising

Dubrovnik weather history for previous 24 hours

 ConditionsComfort  
Time TempWeatherWind HumidityBarometerVisibility
2:30 AM
Feb 2
41 °FPassing clouds.8 mph81%29.45 "HgN/A
2:00 AM41 °FPassing clouds.7 mph87%29.47 "HgN/A
1:30 AM41 °FPassing clouds.3 mph81%29.45 "HgN/A
1:00 AM43 °FPassing clouds.3 mph76%29.45 "HgN/A
12:30 AM41 °FLight rain. Passing clouds.13 mph81%29.45 "HgN/A
12:00 AM41 °FPassing clouds.16 mph81%29.42 "HgN/A
11:30 PM
Feb 1
43 °FThunderstorms. Passing clouds.6 mph81%29.39 "HgN/A
11:00 PM45 °FPassing clouds.3 mph76%29.42 "HgN/A
10:30 PM43 °FPassing clouds.7 mph87%29.39 "HgN/A
10:00 PM43 °FPassing clouds.6 mph87%29.42 "HgN/A
9:30 PM45 °FPassing clouds.12 mph81%29.39 "HgN/A
9:00 PM45 °FPassing clouds.17 mph81%29.39 "HgN/A
8:30 PM46 °FPassing clouds.20 mph82%29.39 "HgN/A
8:00 PM52 °FPassing clouds.21 mph50%29.36 "HgN/A
7:30 PM50 °FPassing clouds.15 mph62%29.33 "HgN/A
7:00 PM50 °FPassing clouds.10 mph71%29.33 "HgN/A
6:30 PM50 °FPartly cloudy.12 mph76%29.33 "HgN/A
6:00 PM50 °FPassing clouds.12 mph71%29.33 "HgN/A
5:30 PM43 °FPartly cloudy.9 mph87%29.30 "HgN/A
5:00 PM43 °FThundershowers. Passing clouds.9 mph87%29.30 "HgN/A
4:30 PM41 °FScattered clouds.10 mph93%29.30 "HgN/A
4:00 PM41 °FScattered clouds.10 mph93%29.30 "HgN/A
3:30 PM41 °FScattered clouds.12 mph93%29.30 "HgN/A
3:00 PM43 °FThunderstorms. Scattered clouds.10 mph93%29.30 "HgN/A
2:30 PM45 °FThunderstorms. Scattered clouds.5 mph93%29.30 "HgN/A
2:00 PM46 °FThundershowers. Scattered clouds.6 mph82%29.27 "HgN/A
1:30 PM48 °FLight rain. Broken clouds.2 mph76%29.27 "HgN/A
1:00 PM48 °FScattered clouds.3 mph76%29.27 "HgN/A
12:30 PM50 °FPassing clouds.6 mph71%29.27 "HgN/A
12:00 PM50 °FScattered clouds.7 mph67%29.27 "HgN/A
11:30 AM50 °FScattered clouds.2 mph67%29.24 "HgN/A
11:00 AM50 °FScattered clouds.3 mph67%29.24 "HgN/A
10:30 AM46 °FPassing clouds.8 mph76%29.24 "HgN/A
10:00 AM46 °FScattered clouds.6 mph76%29.21 "HgN/A
9:30 AM45 °FScattered clouds.6 mph81%29.21 "HgN/A
9:00 AM45 °FScattered clouds.8 mph87%29.18 "HgN/A
8:30 AM45 °FScattered clouds.12 mph81%29.15 "HgN/A
8:00 AM45 °FScattered clouds.14 mph81%29.12 "HgN/A
7:30 AM43 °FScattered clouds.18 mph81%29.09 "HgN/A
7:00 AM43 °FPassing clouds.18 mph81%29.06 "HgN/A
6:30 AM41 °FPassing clouds.20 mph81%29.06 "HgN/A
6:00 AM41 °FLight rain. Passing clouds.24 mph81%29.03 "HgN/A
5:30 AM41 °FRain. Passing clouds.24 mph81%29.00 "Hg6 mi
5:00 AM43 °FLight rain. Passing clouds.23 mph76%29.03 "HgN/A
4:30 AM43 °FLight rain. Passing clouds.22 mph81%29.03 "HgN/A
4:00 AM43 °FLight rain. Passing clouds.15 mph87%29.06 "HgN/A
3:30 AM43 °FRain. Passing clouds.10 mph87%29.06 "Hg5 mi
3:00 AM45 °FLight rain. Passing clouds.10 mph81%29.09 "HgN/A
Weather by CustomWeather, © 2014

See weather overviewHow to use our weather pages